,,,PA_Meas_PMT16A,,PR_Meas_QMR101_102,,RH_Meas_QMH101,,SR_Meas_QMS101,,TA_Meas_QMH101,,GenWind,,GenWind,
date,time,status,PA,status,PR,status,RH,status,SR,status,TA,status,DirAvg,status,SpdAvg,
2011-09-01, 00:00:04,VALID,1004.71,VALID,0,INVALID,163.662,VALID,0,VALID,25.0644,VALID,350,VALID,0,
2011-09-01, 00:01:04,VALID,1004.69,VALID,0,INVALID,163.723,VALID,0,VALID,25.045,VALID,351,VALID,0,
2011-09-01, 00:02:04,VALID,1004.71,VALID,0,INVALID,163.693,VALID,0.100563,VALID,25.0255,VALID,360,VALID,0,
2011-09-01, 00:03:04,VALID,1004.68,VALID,0,INVALID,163.693,VALID,0,VALID,25.0255,VALID,358,VALID,0,
2011-09-01, 00:04:04,VALID,1004.68,VALID,0,INVALID,163.685,VALID,0,VALID,24.9866,VALID,358,VALID,0,
2011-09-01, 00:05:04,VALID,1004.68,VALID,0,INVALID,163.685,VALID,0,VALID,24.9476,VALID,358,VALID,0,
2011-09-01, 00:06:04,VALID,1004.67,VALID,0,INVALID,163.701,VALID,0,VALID,24.9282,VALID,358,VALID,0,
2011-09-01, 00:07:04,VALID,1004.67,VALID,0,INVALID,163.678,VALID,0,VALID,24.9087,VALID,356,VALID,0,
2011-09-01, 00:08:04,VALID,1004.67,VALID,0,INVALID,163.678,VALID,0,VALID,24.9106,VALID,356,VALID,0,
2011-09-01, 00:09:04,VALID,1004.66,VALID,0,INVALID,163.708,VALID,0,VALID,24.8308,VALID,356,VALID,0,
2011-09-01, 00:10:04,VALID,1004.66,VALID,0,INVALID,163.701,VALID,0,VALID,24.8113,VALID,356,VALID,0,
2011-09-01, 00:11:04,VALID,1004.66,VALID,0,INVALID,163.701,VALID,0,VALID,24.7919,VALID,356,VALID,0,
2011-09-01, 00:12:04,VALID,1004.65,VALID,0,INVALID,163.716,VALID,0,VALID,24.7529,VALID,351,VALID,0,
2011-09-01, 00:13:04,VALID,1004.63,VALID,0,INVALID,163.685,VALID,0,VALID,24.714,VALID,351,VALID,0,
2011-09-01, 00:14:04,VALID,1004.64,VALID,0,INVALID,163.708,VALID,0.100563,VALID,24.6945,VALID,353,VALID,0,
2011-09-01, 00:15:04,VALID,1004.62,VALID,0,INVALID,163.723,VALID,0,VALID,24.6342,VALID,353,VALID,0,
2011-09-01, 00:16:04,VALID,1004.64,VALID,0,INVALID,163.716,VALID,0,VALID,24.5953,VALID,353,VALID,0,
2011-09-01, 00:17:04,VALID,1004.64,VALID,0,INVALID,163.723,VALID,0.100563,VALID,24.5953,VALID,353,VALID,0,
2011-09-01, 00:18:04,VALID,1004.61,VALID,0,INVALID,163.723,VALID,0.100563,VALID,24.5777,VALID,353,VALID,0,
2011-09-01, 00:19:04,VALID,1004.59,VALID,0,INVALID,163.708,VALID,0,VALID,24.5777,VALID,353,VALID,0,
2011-09-01, 00:20:04,VALID,1004.6,VALID,0,INVALID,163.716,VALID,0,VALID,24.5388,VALID,353,VALID,0,
2011-09-01, 00:21:04,VALID,1004.58,VALID,0,INVALID,163.723,VALID,0.100563,VALID,24.5388,VALID,353,VALID,0,
2011-09-01, 00:22:04,VALID,1004.55,VALID,0,INVALID,163.701,VALID,0,VALID,24.5193,VALID,353,VALID,0,
2011-09-01, 00:23:04,VALID,1004.54,VALID,0,INVALID,163.739,VALID,0,VALID,24.459,VALID,353,VALID,0,
2011-09-01, 00:24:04,VALID,1004.52,VALID,0,INVALID,163.723,VALID,0,VALID,24.4804,VALID,353,VALID,0,
2011-09-01, 00:25:04,VALID,1004.49,VALID,0,INVALID,163.746,VALID,0,VALID,24.4609,VALID,353,VALID,0,
2011-09-01, 00:26:04,VALID,1004.48,VALID,0,INVALID,163.723,VALID,0,VALID,24.4414,VALID,353,VALID,0,
2011-09-01, 00:27:04,VALID,1004.49,VALID,0,INVALID,163.754,VALID,0,VALID,24.422,VALID,353,VALID,0,
2011-09-01, 00:28:04,VALID,1004.49,VALID,0,INVALID,163.754,VALID,0,VALID,24.4006,VALID,353,VALID,0,
2011-09-01, 00:29:04,VALID,1004.45,VALID,0,INVALID,163.731,VALID,0.100563,VALID,24.422,VALID,353,VALID,0,
2011-09-01, 00:30:04,VALID,1004.41,VALID,0,INVALID,163.739,VALID,0,VALID,24.3812,VALID,353,VALID,0,
2011-09-01, 00:31:04,VALID,1004.41,VALID,0,INVALID,163.731,VALID,0,VALID,24.4238,VALID,353,VALID,0,
2011-09-01, 00:32:04,VALID,1004.37,VALID,0,INVALID,163.723,VALID,0,VALID,24.4433,VALID,353,VALID,0,
2011-09-01, 00:33:04,VALID,1004.36,VALID,0,INVALID,163.723,VALID,0,VALID,24.422,VALID,353,VALID,0,
2011-09-01, 00:34:04,VALID,1004.33,VALID,0,INVALID,163.716,VALID,0,VALID,24.4414,VALID,353,VALID,0,
2011-09-01, 00:35:04,VALID,1004.33,VALID,0,INVALID,163.754,VALID,0,VALID,24.422,VALID,353,VALID,0,
2011-09-01, 00:36:04,VALID,1004.29,VALID,0,INVALID,163.739,VALID,0,VALID,24.4414,VALID,353,VALID,0,
2011-09-01, 00:37:04,VALID,1004.25,VALID,0,INVALID,163.731,VALID,0,VALID,24.4433,VALID,353,VALID,0,
2011-09-01, 00:38:04,VALID,1004.22,VALID,0,INVALID,163.708,VALID,0,VALID,24.4414,VALID,353,VALID,0,
2011-09-01, 00:39:04,VALID,1004.2,VALID,0,INVALID,163.716,VALID,0.100563,VALID,24.4414,VALID,353,VALID,0,
2011-09-01, 00:40:04,VALID,1004.19,VALID,0,INVALID,163.739,VALID,0.100563,VALID,24.4414,VALID,353,VALID,0,
2011-09-01, 00:41:04,VALID,1004.18,VALID,0,INVALID,163.746,VALID,0,VALID,24.422,VALID,353,VALID,0,
2011-09-01, 00:42:04,VALID,1004.17,VALID,0,INVALID,163.708,VALID,0.100563,VALID,24.4414,VALID,353,VALID,0,
2011-09-01, 00:43:04,VALID,1004.16,VALID,0,INVALID,163.754,VALID,0.100563,VALID,24.4201,VALID,353,VALID,0,
2011-09-01, 00:44:04,VALID,1004.17,VALID,0,INVALID,163.716,VALID,0.100563,VALID,24.4414,VALID,353,VALID,0,
2011-09-01, 00:45:04,VALID,1004.16,VALID,0,INVALID,163.739,VALID,0,VALID,24.4414,VALID,353,VALID,0,
2011-09-01, 00:46:04,VALID,1004.16,VALID,0,INVALID,163.746,VALID,0,VALID,24.4609,VALID,353,VALID,0,
2011-09-01, 00:47:04,VALID,1004.16,VALID,0,INVALID,163.708,VALID,0,VALID,24.4609,VALID,353,VALID,0,
2011-09-01, 00:48:04,VALID,1004.13,VALID,0,INVALID,163.708,VALID,0,VALID,24.4609,VALID,353,VALID,0,
2011-09-01, 00:49:04,VALID,1004.11,VALID,0,INVALID,163.731,VALID,0,VALID,24.4609,VALID,353,VALID,0,
2011-09-01, 00:50:04,VALID,1004.08,VALID,0,INVALID,163.731,VALID,0,VALID,24.4609,VALID,353,VALID,0,
2011-09-01, 00:51:04,VALID,1004.04,VALID,0,INVALID,163.716,VALID,0,VALID,24.4396,VALID,353,VALID,0,
2011-09-01, 00:52:04,VALID,1004.03,VALID,0,INVALID,163.746,VALID,0,VALID,24.4804,VALID,353,VALID,0,
2011-09-01, 00:53:04,VALID,1004.02,VALID,0,INVALID,163.716,VALID,0,VALID,24.4998,VALID,353,VALID,0,
2011-09-01, 00:54:04,VALID,1003.97,VALID,0,INVALID,163.716,VALID,0,VALID,24.5193,VALID,353,VALID,0,
2011-09-01, 00:55:04,VALID,1003.95,VALID,0,INVALID,163.754,VALID,0,VALID,24.5406,VALID,353,VALID,0,
2011-09-01, 00:56:04,VALID,1003.91,VALID,0,INVALID,163.739,VALID,0,VALID,24.5193,VALID,353,VALID,0,
2011-09-01, 00:57:04,VALID,1003.88,VALID,0,INVALID,163.723,VALID,0.100563,VALID,24.498,VALID,353,VALID,0,
2011-09-01, 00:58:04,VALID,1003.85,VALID,0,INVALID,163.716,VALID,0,VALID,24.4804,VALID,353,VALID,0,
2011-09-01, 00:59:04,VALID,1003.84,VALID,0,INVALID,163.693,VALID,0,VALID,24.4414,VALID,353,VALID,0,
2011-09-01, 01:00:04,VALID,1003.81,VALID,0,INVALID,163.731,VALID,0,VALID,24.4433,VALID,353,VALID,0,
2011-09-01, 01:01:04,VALID,1003.79,VALID,0,INVALID,163.708,VALID,0,VALID,24.4025,VALID,353,VALID,0,
2011-09-01, 01:02:04,VALID,1003.78,VALID,0,INVALID,163.762,VALID,0.100563,VALID,24.4043,VALID,353,VALID,0,
2011-09-01, 01:03:04,VALID,1003.77,VALID,0,INVALID,163.746,VALID,0,VALID,24.3636,VALID,353,VALID,0,
2011-09-01, 01:04:04,VALID,1003.76,VALID,0,INVALID,163.723,VALID,0,VALID,24.3441,VALID,353,VALID,0,
2011-09-01, 01:05:04,VALID,1003.78,VALID,0,INVALID,163.762,VALID,0,VALID,24.3246,VALID,349,VALID,0,
2011-09-01, 01:06:04,VALID,1003.77,VALID,0,INVALID,163.731,VALID,0,VALID,24.3246,VALID,343,VALID,0,
2011-09-01, 01:07:04,VALID,1003.72,VALID,0,INVALID,163.754,VALID,0,VALID,24.3052,VALID,343,VALID,0,
2011-09-01, 01:08:04,VALID,1003.71,VALID,0,INVALID,163.754,VALID,0,VALID,24.2839,VALID,344,VALID,0,
2011-09-01, 01:09:04,VALID,1003.68,VALID,0,INVALID,163.746,VALID,0,VALID,24.3052,VALID,345,VALID,0,
2011-09-01, 01:10:04,VALID,1003.67,VALID,0,INVALID,163.739,VALID,0,VALID,24.3052,VALID,345,VALID,0,
2011-09-01, 01:11:04,VALID,1003.64,VALID,0,INVALID,163.731,VALID,0,VALID,24.2857,VALID,345,VALID,0,
2011-09-01, 01:12:04,VALID,1003.61,VALID,0,INVALID,163.769,VALID,0,VALID,24.2857,VALID,351,VALID,0,
2011-09-01, 01:13:04,VALID,1003.61,VALID,0,INVALID,163.739,VALID,0,VALID,24.3246,VALID,350,VALID,0,
2011-09-01, 01:14:04,VALID,1003.57,VALID,0,INVALID,163.701,VALID,0,VALID,24.3617,VALID,357,VALID,0,
2011-09-01, 01:15:04,VALID,1003.58,VALID,0,INVALID,163.731,VALID,0,VALID,24.5017,VALID,357,VALID,0,
2011-09-01, 01:16:04,VALID,1003.55,VALID,0,INVALID,163.723,VALID,0,VALID,24.5388,VALID,348,VALID,0,
2011-09-01, 01:17:04,VALID,1003.52,VALID,0,INVALID,163.723,VALID,0,VALID,24.6574,VALID,350,VALID,0,
2011-09-01, 01:18:04,VALID,1003.5,VALID,0,INVALID,163.716,VALID,0,VALID,24.6945,VALID,356,VALID,0,
2011-09-01, 01:19:04,VALID,1003.5,VALID,0,INVALID,163.716,VALID,0,VALID,24.7529,VALID,347,VALID,0,
2011-09-01, 01:20:04,VALID,1003.51,VALID,0,INVALID,163.701,VALID,0,VALID,24.8503,VALID,339,VALID,0,
2011-09-01, 01:21:04,VALID,1003.48,VALID,0,INVALID,163.685,VALID,0,VALID,24.8697,VALID,347,VALID,0,
2011-09-01, 01:22:04,VALID,1003.52,VALID,0,INVALID,163.701,VALID,0,VALID,24.9476,VALID,349,VALID,0,
2011-09-01, 01:23:04,VALID,1003.51,VALID,0,INVALID,163.716,VALID,0,VALID,24.9671,VALID,345,VALID,0,
2011-09-01, 01:24:04,VALID,1003.53,VALID,0,INVALID,163.708,VALID,0,VALID,24.9476,VALID,18,VALID,0,
2011-09-01, 01:25:04,VALID,1003.54,VALID,0,INVALID,163.678,VALID,0,VALID,24.969,VALID,18,VALID,0,
2011-09-01, 01:26:04,VALID,1003.52,VALID,0,INVALID,163.701,VALID,0,VALID,24.9671,VALID,348,VALID,0,
2011-09-01, 01:27:04,VALID,1003.55,VALID,0,INVALID,163.701,VALID,0,VALID,24.9652,VALID,325,VALID,0,
2011-09-01, 01:28:04,VALID,1003.55,VALID,0,INVALID,163.685,VALID,0,VALID,24.9671,VALID,347,VALID,0,
2011-09-01, 01:29:04,VALID,1003.56,VALID,0,INVALID,163.708,VALID,0,VALID,24.9866,VALID,342,VALID,0,
2011-09-01, 01:30:04,VALID,1003.53,VALID,0,INVALID,163.708,VALID,0,VALID,24.9652,VALID,338,VALID,0,
2011-09-01, 01:31:04,VALID,1003.56,VALID,0,INVALID,163.693,VALID,0,VALID,24.9866,VALID,351,VALID,0,
2011-09-01, 01:32:04,VALID,1003.57,VALID,0,INVALID,163.701,VALID,0,VALID,24.9671,VALID,347,VALID,0,
2011-09-01, 01:33:04,VALID,1003.56,VALID,0,INVALID,163.708,VALID,0,VALID,24.9671,VALID,349,VALID,0,
2011-09-01, 01:34:04,VALID,1003.55,VALID,0,INVALID,163.701,VALID,0,VALID,24.9476,VALID,349,VALID,0,
2011-09-01, 01:35:04,VALID,1003.53,VALID,0,INVALID,163.678,VALID,0,VALID,24.9282,VALID,359,VALID,0,
2011-09-01, 01:36:04,VALID,1003.53,VALID,0,INVALID,163.693,VALID,0,VALID,24.93,VALID,348,VALID,0,
2011-09-01, 01:37:04,VALID,1003.53,VALID,0,INVALID,163.716,VALID,0,VALID,24.8892,VALID,345,VALID,0,
2011-09-01, 01:38:04,VALID,1003.51,VALID,0,INVALID,163.701,VALID,0,VALID,24.8503,VALID,360,VALID,0,
2011-09-01, 01:39:04,VALID,1003.53,VALID,0,INVALID,163.723,VALID,0,VALID,24.7919,VALID,342,VALID,0,
2011-09-01, 01:40:04,VALID,1003.54,VALID,0,INVALID,163.701,VALID,0,VALID,24.7724,VALID,342,VALID,0,
2011-09-01, 01:41:04,VALID,1003.52,VALID,0,INVALID,163.708,VALID,0,VALID,24.714,VALID,342,VALID,0,
2011-09-01, 01:42:04,VALID,1003.5,VALID,0,INVALID,163.746,VALID,0,VALID,24.675,VALID,342,VALID,0,
2011-09-01, 01:43:04,VALID,1003.5,VALID,0,INVALID,163.708,VALID,0,VALID,24.6361,VALID,342,VALID,0,
2011-09-01, 01:44:04,VALID,1003.46,VALID,0,INVALID,163.739,VALID,0,VALID,24.6361,VALID,355,VALID,0,
2011-09-01, 01:45:04,VALID,1003.47,VALID,0,INVALID,163.701,VALID,0,VALID,24.6361,VALID,348,VALID,0,
2011-09-01, 01:46:04,VALID,1003.44,VALID,0,INVALID,163.716,VALID,0,VALID,24.6361,VALID,346,VALID,0,
2011-09-01, 01:47:04,VALID,1003.45,VALID,0,INVALID,163.746,VALID,0,VALID,24.6166,VALID,343,VALID,0,
2011-09-01, 01:48:04,VALID,1003.44,VALID,0,INVALID,163.716,VALID,0,VALID,24.5972,VALID,343,VALID,0,
2011-09-01, 01:49:04,VALID,1003.46,VALID,0,INVALID,163.723,VALID,0,VALID,24.5582,VALID,343,VALID,0,
2011-09-01, 01:50:04,VALID,1003.45,VALID,0,INVALID,163.731,VALID,0,VALID,24.5406,VALID,343,VALID,0,
2011-09-01, 01:51:04,VALID,1003.42,VALID,0,INVALID,163.723,VALID,0,VALID,24.4804,VALID,343,VALID,0,
2011-09-01, 01:52:04,VALID,1003.42,VALID,0,INVALID,163.716,VALID,0,VALID,24.4414,VALID,5,VALID,0,
2011-09-01, 01:53:04,VALID,1003.42,VALID,0,INVALID,163.716,VALID,0.100563,VALID,24.4025,VALID,5,VALID,0,
2011-09-01, 01:54:04,VALID,1003.38,VALID,0,INVALID,163.716,VALID,0,VALID,24.3636,VALID,5,VALID,0,
2011-09-01, 01:55:04,VALID,1003.38,VALID,0,INVALID,163.701,VALID,0.100563,VALID,24.3246,VALID,5,VALID,0,
2011-09-01, 01:56:04,VALID,1003.32,VALID,0,INVALID,163.762,VALID,0,VALID,24.2662,VALID,3,VALID,0,
2011-09-01, 01:57:04,VALID,1003.33,VALID,0,INVALID,163.731,VALID,0,VALID,24.2273,VALID,3,VALID,0,
2011-09-01, 01:58:04,VALID,1003.3,VALID,0,INVALID,163.739,VALID,0,VALID,24.2273,VALID,1,VALID,0,
2011-09-01, 01:59:04,VALID,1003.28,VALID,0,INVALID,163.731,VALID,0,VALID,24.1689,VALID,1,VALID,0,
2011-09-01, 02:00:04,VALID,1003.28,VALID,0,INVALID,163.762,VALID,0,VALID,24.1105,VALID,1,VALID,0,
2011-09-01, 02:01:04,VALID,1003.24,VALID,0,INVALID,163.754,VALID,0,VALID,24.091,VALID,1,VALID,0,
2011-09-01, 02:02:04,VALID,1003.22,VALID,0,INVALID,163.777,VALID,0,VALID,24.0521,VALID,1,VALID,0,
2011-09-01, 02:03:04,VALID,1003.2,VALID,0,INVALID,163.762,VALID,0,VALID,24.0132,VALID,1,VALID,0,
2011-09-01, 02:04:04,VALID,1003.16,VALID,0,INVALID,163.739,VALID,0,VALID,23.9335,VALID,1,VALID,0,
2011-09-01, 02:05:04,VALID,1003.13,VALID,0,INVALID,163.754,VALID,0,VALID,23.9335,VALID,1,VALID,0,
2011-09-01, 02:06:04,VALID,1003.08,VALID,0,INVALID,163.746,VALID,0,VALID,23.9159,VALID,1,VALID,0,
2011-09-01, 02:07:04,VALID,1003.06,VALID,0,INVALID,163.792,VALID,0,VALID,23.8964,VALID,1,VALID,0,
2011-09-01, 02:08:04,VALID,1003.05,VALID,0,INVALID,163.792,VALID,0.100563,VALID,23.8362,VALID,356,VALID,0,
2011-09-01, 02:09:04,VALID,1003.04,VALID,0,INVALID,163.777,VALID,0,VALID,23.8575,VALID,1,VALID,0,
2011-09-01, 02:10:04,VALID,1003.03,VALID,0,INVALID,163.762,VALID,0,VALID,23.8362,VALID,13,VALID,0,
2011-09-01, 02:11:04,VALID,1003.03,VALID,0,INVALID,163.769,VALID,0.100563,VALID,23.8185,VALID,13,VALID,0,
2011-09-01, 02:12:04,VALID,1003.03,VALID,0,INVALID,163.777,VALID,0,VALID,23.8185,VALID,13,VALID,0,
2011-09-01, 02:13:04,VALID,1003.05,VALID,0,INVALID,163.792,VALID,0.100563,VALID,23.8185,VALID,13,VALID,0,
2011-09-01, 02:14:04,VALID,1003.05,VALID,0,INVALID,163.792,VALID,0,VALID,23.7991,VALID,13,VALID,0,
2011-09-01, 02:15:04,VALID,1003.03,VALID,0,INVALID,163.769,VALID,0,VALID,23.7991,VALID,9,VALID,0,
2011-09-01, 02:16:04,VALID,1003.07,VALID,0,INVALID,163.769,VALID,0,VALID,23.7778,VALID,9,VALID,0,
2011-09-01, 02:17:04,VALID,1003.08,VALID,0,INVALID,163.754,VALID,0,VALID,23.7796,VALID,9,VALID,0,
2011-09-01, 02:18:04,VALID,1003.09,VALID,0,INVALID,163.792,VALID,0,VALID,23.7991,VALID,9,VALID,0,
2011-09-01, 02:19:04,VALID,1003.09,VALID,0,INVALID,163.792,VALID,0,VALID,23.8185,VALID,9,VALID,0,
2011-09-01, 02:20:04,VALID,1003.08,VALID,0,INVALID,163.784,VALID,0,VALID,23.8185,VALID,9,VALID,0,
2011-09-01, 02:21:04,VALID,1003.08,VALID,0,INVALID,163.784,VALID,0,VALID,23.8575,VALID,9,VALID,0,
2011-09-01, 02:22:04,VALID,1003.07,VALID,0,INVALID,163.754,VALID,0,VALID,23.8575,VALID,8,VALID,0,
2011-09-01, 02:23:04,VALID,1003.07,VALID,0,INVALID,163.784,VALID,0,VALID,23.8769,VALID,8,VALID,0,
2011-09-01, 02:24:04,VALID,1003.03,VALID,0,INVALID,163.777,VALID,0,VALID,23.8964,VALID,8,VALID,0,
2011-09-01, 02:25:04,VALID,1003.03,VALID,0,INVALID,163.8,VALID,0,VALID,23.9159,VALID,8,VALID,0,
2011-09-01, 02:26:04,VALID,1003.05,VALID,0,INVALID,163.769,VALID,0,VALID,23.9159,VALID,8,VALID,0,
2011-09-01, 02:27:04,VALID,1003.05,VALID,0,INVALID,163.754,VALID,0,VALID,23.9159,VALID,8,VALID,0,
2011-09-01, 02:28:04,VALID,1003.04,VALID,0,INVALID,163.777,VALID,0,VALID,23.8769,VALID,8,VALID,0,
2011-09-01, 02:29:04,VALID,1003.05,VALID,0,INVALID,163.784,VALID,0,VALID,23.8556,VALID,8,VALID,0,
2011-09-01, 02:30:04,VALID,1003.06,VALID,0,INVALID,163.792,VALID,0.100563,VALID,23.8167,VALID,8,VALID,0,
2011-09-01, 02:31:04,VALID,1003.04,VALID,0,INVALID,163.769,VALID,0,VALID,23.7973,VALID,8,VALID,0,
2011-09-01, 02:32:04,VALID,1003.07,VALID,0,INVALID,163.792,VALID,0.100563,VALID,23.7796,VALID,8,VALID,0,
2011-09-01, 02:33:04,VALID,1003.05,VALID,0,INVALID,163.762,VALID,0.100563,VALID,23.7796,VALID,8,VALID,0,
2011-09-01, 02:34:04,VALID,1003.08,VALID,0,INVALID,163.792,VALID,0.100563,VALID,23.7212,VALID,8,VALID,0,
2011-09-01, 02:35:04,VALID,1003.07,VALID,0,INVALID,163.762,VALID,0,VALID,23.7,VALID,8,VALID,0,
2011-09-01, 02:36:04,VALID,1003.06,VALID,0,INVALID,163.807,VALID,0,VALID,23.6823,VALID,8,VALID,0,
2011-09-01, 02:37:04,VALID,1003.04,VALID,0,INVALID,163.8,VALID,0,VALID,23.6628,VALID,8,VALID,0,
2011-09-01, 02:38:04,VALID,1003.07,VALID,0,INVALID,163.807,VALID,0,VALID,23.6628,VALID,8,VALID,0,
2011-09-01, 02:39:04,VALID,1003.07,VALID,0,INVALID,163.8,VALID,0,VALID,23.6628,VALID,8,VALID,0,
2011-09-01, 02:40:04,VALID,1003.07,VALID,0,INVALID,163.8,VALID,0,VALID,23.6628,VALID,8,VALID,0,
2011-09-01, 02:41:04,VALID,1003.03,VALID,0,INVALID,163.777,VALID,0,VALID,23.6628,VALID,8,VALID,0,
2011-09-01, 02:42:04,VALID,1003.02,VALID,0,INVALID,163.777,VALID,0,VALID,23.6628,VALID,4,VALID,0,
2011-09-01, 02:43:04,VALID,1003.04,VALID,0,INVALID,163.823,VALID,0.100563,VALID,23.6221,VALID,3,VALID,0,
2011-09-01, 02:44:04,VALID,1003.04,VALID,0,INVALID,163.792,VALID,0,VALID,23.6239,VALID,3,VALID,0,
2011-09-01, 02:45:04,VALID,1003.04,VALID,0,INVALID,163.807,VALID,0,VALID,23.6044,VALID,3,VALID,0,
2011-09-01, 02:46:04,VALID,1003.05,VALID,0,INVALID,163.8,VALID,0,VALID,23.5637,VALID,3,VALID,0,
2011-09-01, 02:47:04,VALID,1003.05,VALID,0,INVALID,163.784,VALID,0,VALID,23.5655,VALID,3,VALID,0,
2011-09-01, 02:48:04,VALID,1003.1,VALID,0,INVALID,163.807,VALID,0,VALID,23.546,VALID,3,VALID,0,
2011-09-01, 02:49:04,VALID,1003.13,VALID,0,INVALID,163.8,VALID,0,VALID,23.5266,VALID,3,VALID,0,
2011-09-01, 02:50:04,VALID,1003.16,VALID,0,INVALID,163.823,VALID,0,VALID,23.4859,VALID,3,VALID,0,
2011-09-01, 02:51:04,VALID,1003.18,VALID,0,INVALID,163.8,VALID,0,VALID,23.5071,VALID,3,VALID,0,
2011-09-01, 02:52:04,VALID,1003.2,VALID,0,INVALID,163.815,VALID,0,VALID,23.5266,VALID,3,VALID,0,
2011-09-01, 02:53:04,VALID,1003.2,VALID,0,INVALID,163.784,VALID,0,VALID,23.5053,VALID,3,VALID,0,
2011-09-01, 02:54:04,VALID,1003.19,VALID,0,INVALID,163.8,VALID,0,VALID,23.5248,VALID,3,VALID,0,
2011-09-01, 02:55:04,VALID,1003.2,VALID,0,INVALID,163.807,VALID,0,VALID,23.585,VALID,3,VALID,0,
2011-09-01, 02:56:04,VALID,1003.18,VALID,0,INVALID,163.823,VALID,0,VALID,23.5832,VALID,3,VALID,0,
2011-09-01, 02:57:04,VALID,1003.2,VALID,0,INVALID,163.8,VALID,0,VALID,23.6416,VALID,3,VALID,0,
2011-09-01, 02:58:04,VALID,1003.17,VALID,0,INVALID,163.792,VALID,0.100563,VALID,23.6823,VALID,3,VALID,0,
2011-09-01, 02:59:04,VALID,1003.18,VALID,0,INVALID,163.792,VALID,0,VALID,23.6823,VALID,3,VALID,0,
2011-09-01, 03:00:04,VALID,1003.2,VALID,0,INVALID,163.784,VALID,0.100563,VALID,23.661,VALID,3,VALID,0,
2011-09-01, 03:01:04,VALID,1003.21,VALID,0,INVALID,163.792,VALID,0,VALID,23.6628,VALID,3,VALID,0,
2011-09-01, 03:02:04,VALID,1003.24,VALID,0,INVALID,163.8,VALID,0,VALID,23.6628,VALID,3,VALID,0,
2011-09-01, 03:03:04,VALID,1003.27,VALID,0,INVALID,163.777,VALID,0,VALID,23.6434,VALID,3,VALID,0,
2011-09-01, 03:04:04,VALID,1003.26,VALID,0,INVALID,163.807,VALID,0,VALID,23.6452,VALID,3,VALID,0,
2011-09-01, 03:05:04,VALID,1003.27,VALID,0,INVALID,163.784,VALID,0,VALID,23.6239,VALID,1,VALID,0,
2011-09-01, 03:06:04,VALID,1003.29,VALID,0,INVALID,163.8,VALID,0,VALID,23.6452,VALID,349,VALID,0,
2011-09-01, 03:07:04,VALID,1003.31,VALID,0,INVALID,163.777,VALID,0,VALID,23.6239,VALID,347,VALID,0,
2011-09-01, 03:08:04,VALID,1003.32,VALID,0,INVALID,163.807,VALID,0.100563,VALID,23.6434,VALID,344,VALID,0,
2011-09-01, 03:09:04,VALID,1003.31,VALID,0,INVALID,163.792,VALID,0,VALID,23.6628,VALID,345,VALID,0,
2011-09-01, 03:10:04,VALID,1003.33,VALID,0,INVALID,163.792,VALID,0.100563,VALID,23.6805,VALID,345,VALID,0,
2011-09-01, 03:11:04,VALID,1003.33,VALID,0,INVALID,163.8,VALID,0,VALID,23.7212,VALID,345,VALID,0,
2011-09-01, 03:12:04,VALID,1003.35,VALID,0,INVALID,163.784,VALID,0.100563,VALID,23.7212,VALID,345,VALID,0,
2011-09-01, 03:13:04,VALID,1003.35,VALID,0,INVALID,163.769,VALID,0,VALID,23.7407,VALID,345,VALID,0,
2011-09-01, 03:14:04,VALID,1003.35,VALID,0,INVALID,163.807,VALID,0,VALID,23.7601,VALID,347,VALID,0,
2011-09-01, 03:15:04,VALID,1003.35,VALID,0,INVALID,163.769,VALID,0,VALID,23.8009,VALID,347,VALID,0,
2011-09-01, 03:16:04,VALID,1003.37,VALID,0,INVALID,163.784,VALID,0,VALID,23.7796,VALID,347,VALID,0,
2011-09-01, 03:17:04,VALID,1003.36,VALID,0,INVALID,163.792,VALID,0,VALID,23.8185,VALID,347,VALID,0,
2011-09-01, 03:18:04,VALID,1003.4,VALID,0,INVALID,163.815,VALID,0,VALID,23.8203,VALID,347,VALID,0,
2011-09-01, 03:19:04,VALID,1003.37,VALID,0,INVALID,163.807,VALID,0,VALID,23.8398,VALID,347,VALID,0,
2011-09-01, 03:20:04,VALID,1003.39,VALID,0,INVALID,163.769,VALID,0,VALID,23.8593,VALID,347,VALID,0,
2011-09-01, 03:21:04,VALID,1003.4,VALID,0,INVALID,163.777,VALID,0,VALID,23.838,VALID,347,VALID,0,
2011-09-01, 03:22:04,VALID,1003.39,VALID,0,INVALID,163.784,VALID,0,VALID,23.9195,VALID,347,VALID,0,
2011-09-01, 03:23:04,VALID,1003.43,VALID,0,INVALID,163.762,VALID,0,VALID,23.8575,VALID,347,VALID,0,
2011-09-01, 03:24:04,VALID,1003.39,VALID,0,INVALID,163.777,VALID,0,VALID,23.8575,VALID,346,VALID,0,
2011-09-01, 03:25:04,VALID,1003.39,VALID,0,INVALID,163.777,VALID,0,VALID,23.9159,VALID,346,VALID,0,
2011-09-01, 03:26:04,VALID,1003.36,VALID,0,INVALID,163.769,VALID,0,VALID,23.9566,VALID,346,VALID,0,
2011-09-01, 03:27:04,VALID,1003.38,VALID,0,INVALID,163.746,VALID,0,VALID,23.9742,VALID,343,VALID,0,
2011-09-01, 03:28:04,VALID,1003.39,VALID,0,INVALID,163.792,VALID,0,VALID,24.0539,VALID,343,VALID,0,
2011-09-01, 03:29:04,VALID,1003.37,VALID,0,INVALID,163.746,VALID,0,VALID,24.1123,VALID,340,VALID,0,
2011-09-01, 03:30:04,VALID,1003.38,VALID,0,INVALID,163.762,VALID,0,VALID,24.1902,VALID,352,VALID,0,
2011-09-01, 03:31:04,VALID,1003.41,VALID,0,INVALID,163.762,VALID,0,VALID,24.2078,VALID,341,VALID,0,
2011-09-01, 03:32:04,VALID,1003.43,VALID,0,INVALID,163.731,VALID,0,VALID,24.2291,VALID,343,VALID,0,
2011-09-01, 03:33:04,VALID,1003.46,VALID,0,INVALID,163.754,VALID,0,VALID,24.2662,VALID,349,VALID,0,
2011-09-01, 03:34:04,VALID,1003.47,VALID,0,INVALID,163.754,VALID,0,VALID,24.3246,VALID,349,VALID,0,
2011-09-01, 03:35:04,VALID,1003.48,VALID,0,INVALID,163.739,VALID,0,VALID,24.3654,VALID,349,VALID,0,
2011-09-01, 03:36:04,VALID,1003.51,VALID,0,INVALID,163.754,VALID,0,VALID,24.3849,VALID,349,VALID,0,
2011-09-01, 03:37:04,VALID,1003.48,VALID,0,INVALID,163.746,VALID,0,VALID,24.4043,VALID,349,VALID,0,
2011-09-01, 03:38:04,VALID,1003.5,VALID,0,INVALID,163.716,VALID,0,VALID,24.4646,VALID,348,VALID,0,
2011-09-01, 03:39:04,VALID,1003.48,VALID,0,INVALID,163.746,VALID,0,VALID,24.4414,VALID,348,VALID,0,
2011-09-01, 03:40:04,VALID,1003.46,VALID,0,INVALID,163.701,VALID,0,VALID,24.562,VALID,348,VALID,0,
2011-09-01, 03:41:04,VALID,1003.45,VALID,0,INVALID,163.693,VALID,0,VALID,24.5601,VALID,345,VALID,0,
2011-09-01, 03:42:04,VALID,1003.44,VALID,0,INVALID,163.723,VALID,0,VALID,24.599,VALID,345,VALID,0,
2011-09-01, 03:43:04,VALID,1003.44,VALID,0,INVALID,163.708,VALID,0,VALID,24.6185,VALID,349,VALID,0,
2011-09-01, 03:44:04,VALID,1003.47,VALID,0,INVALID,163.708,VALID,0,VALID,24.6361,VALID,349,VALID,0,
2011-09-01, 03:45:04,VALID,1003.44,VALID,0,INVALID,163.716,VALID,0,VALID,24.675,VALID,345,VALID,0,
2011-09-01, 03:46:04,VALID,1003.44,VALID,0,INVALID,163.701,VALID,0,VALID,24.714,VALID,338,VALID,0,
2011-09-01, 03:47:04,VALID,1003.47,VALID,0,INVALID,163.693,VALID,0,VALID,24.714,VALID,339,VALID,0,
2011-09-01, 03:48:04,VALID,1003.46,VALID,0,INVALID,163.716,VALID,0.100563,VALID,24.7335,VALID,337,VALID,0,
2011-09-01, 03:49:04,VALID,1003.49,VALID,0,INVALID,163.685,VALID,0,VALID,24.7316,VALID,338,VALID,0,
2011-09-01, 03:50:04,VALID,1003.49,VALID,0,INVALID,163.693,VALID,0,VALID,24.7529,VALID,338,VALID,0,
2011-09-01, 03:51:04,VALID,1003.52,VALID,0,INVALID,163.693,VALID,0,VALID,24.7724,VALID,357,VALID,0,
2011-09-01, 03:52:04,VALID,1003.51,VALID,0,INVALID,163.685,VALID,0,VALID,24.7919,VALID,348,VALID,0,
2011-09-01, 03:53:04,VALID,1003.56,VALID,0,INVALID,163.701,VALID,0,VALID,24.7919,VALID,5,VALID,0,
2011-09-01, 03:54:04,VALID,1003.57,VALID,0,INVALID,163.716,VALID,0,VALID,24.8327,VALID,3,VALID,0,